DECAYED

STARLINK-33724, 63574 (Decayed)

Orbit data source: Space-Track

STARLINK-33724, 63574 was a payload satellite owned by SpaceX/Seattle (US) in LEO that was launched on Mon, 14 Apr 2025 UTC via an FALCON 9 launch vehicle from the Air Force Eastern Test Range (AFETR). Payload-class satellites include a variety of spacecraft equipped with specific instruments for various scientific and technological missions. These include communications satellites like Starlink; space stations such as the ISS; scientific satellites like the Hubble; Earth observation satellites from companies like Planet Labs, Umbra, and HawkEye 360; GPS; miniature CubeSats for education and research; and military/defense satellites.

Not visible in the next 10 days
Identifier
63574, 2025-076F
Orbit
Decayed
Country
Flag of USUS
Related business
Manufacturer
SpaceX/Seattle
Mission
Decayed Commercial Communications
Bus & Motor
STARLINK V2MO, Unknown motor
Mass
575 kg wet, ~530 kg dry
Launch date (UTC)
2025-04-14 (1 year ago)
Launch vehicle
FALCON 9
Launch site
Air Force Eastern Test Range (AFETR)
Object type
Payload
Rocket body
Debris
Shape & HBR
Box + 2 Pan, 17.7 m
Radar Cross Section
36.964 m², Large (>1 m²)

Expand to show TLE details & history
Last TLE update: 1 year ago

TLE from 1 year ago
0 STARLINK-33724
1 63574U 25076F   25152.34017476  .18104540  89433-5  56612-2 0  9999
2 63574  42.9906 103.8065 0007447 231.3569 261.7491 16.25475365  8687
Epoch: 2025-06-01T08:09Z
TLE epoch observation values (Epoch: 2025-06-01T08:09:51.099Z)
Latitude
30.01919°
Longitude
-126.76791°
Altitude
205.969 km
Speed
7.787 km/s
True Right ascension
16h 23m 03s
True Declination
29° 51' 29"
Sunlit
Object was in full shadow at epoch
Visualization orbit readout
Latitude
Unknown
Longitude
Unknown
Altitude
Unknown
Speed
Unknown
Apparent Right ascension
Unknown
Apparent Declination
Unknown
Sunlit
N/A
Visualization observer readout
Local Sidereal Time
07:20:40
Azimuth
Unknown
Elevation
Unknown
Doppler factor
Unknown
Orbital elements
Apogee altitude
211.66 km
Perigee altitude
201.852 km
Semi-major axis
6,584.893 km
Eccentricity
0.00074
Inclination
42.9906°
RAAN
103.8065°
Arg. of periapsis
231.3569°
True anomaly
261.66466°
Mean anomaly
261.7491°
Eccentric anomaly
261.70688°
Mean motion
4.06181 °/min
Orbital period
88.63 mins
BSTAR
0.0056612
Loading maneuver chart data...
Computing Atmospheric mass density...
Loading historical data...
Loading historical data...
Loading historical data...
Loading historical data...
Loading historical data...
Loading historical data...
Loading historical data...

Documentation

Showing up to 5 results
|